Home > Weather > Vilnius > Past weeks

Flag for Lithuania Weather for the Past 2 Weeks in Vilnius, Lithuania

Now
39 °F

Sunny.


Feels Like: 30 °F
Forecast: 41 / 48 °F
Wind: 16 mph from South

Location: Vilnius Airport

Current Time: Feb 8, 2016 at 1:30:33 PM

Latest Report: Feb 8, 2016 at 12:50 PM


Visibility: 10 mi

Pressure: 29.74 "Hg

Humidity: 75%

Dew point: 32 °F

Location of VilniusLocation

Historic Weather in Vilnius — Graph

°F

Vilnius Temperature Yesterday

Maximum temperature yesterday: 43 °F (at 2:20 PM)
Minimum temperature yesterday: 32 °F (at 7:50 AM)
Average temperature yesterday: 37 °F

High & Low Weather Summary for the Past Weeks

 TemperatureHumidityPressure
High45 °F (Feb 2, 9:20 AM)100% (Jan 24, 10:20 PM)30.30 "Hg (Jan 24, 10:20 PM)
Low14 °F (Jan 24, 12:20 PM)66% (Feb 7, 12:50 PM)29.33 "Hg (Jan 31, 4:20 AM)
Average35 °F88%29.79 "Hg
* Reported Jan 24 12:20 PM — Feb 8 12:20 PM, Vilnius, Weather by CustomWeather, © 2016

Note: Actual official high and low records may vary slightly from our data, if they occured in-between our weather recording intervals... More about our weather records

Advertising

Vilnius Weather History for the Previous 24 Hours

 ConditionsComfort  
Time TempWeatherWind HumidityBarometerVisibility
12:20 PM
Mon, Feb 8
39 °FSunny.20 mph75%29.74 "Hg10 mi
11:50 AM39 °FSunny.18 mph75%29.74 "Hg10 mi
11:20 AM39 °FSunny.18 mph75%29.74 "Hg10 mi
10:50 AM37 °FSunny.15 mph81%29.74 "Hg10 mi
10:20 AM37 °FSunny.17 mph81%29.74 "Hg10 mi
9:50 AM36 °FSunny.17 mph81%29.74 "Hg10 mi
9:20 AM36 °FSunny.16 mph81%29.74 "Hg10 mi
8:50 AM34 °FSunny.16 mph87%29.74 "Hg10 mi
8:20 AM34 °FSunny.15 mph87%29.74 "Hg10 mi
7:50 AM32 °FClear.15 mph87%29.74 "Hg10 mi
7:20 AM32 °FClear.14 mph87%29.74 "Hg10 mi
6:50 AM32 °FClear.15 mph87%29.74 "Hg10 mi
6:20 AM32 °FClear.15 mph87%29.74 "Hg10 mi
5:50 AM32 °FClear.14 mph87%29.74 "Hg10 mi
5:20 AM32 °FClear.16 mph87%29.74 "Hg10 mi
3:50 AM32 °FClear.16 mph87%29.77 "Hg10 mi
2:50 AM32 °FClear.14 mph80%29.80 "Hg10 mi
2:20 AM32 °FClear.14 mph80%29.80 "Hg10 mi
1:50 AM32 °FClear.13 mph80%29.80 "Hg10 mi
1:20 AM34 °FClear.15 mph75%29.80 "Hg10 mi
12:50 AM34 °FClear.16 mph75%29.83 "Hg10 mi
12:20 AM34 °FClear.16 mph75%29.83 "Hg10 mi
11:50 PM
Sun, Feb 7
34 °FClear.15 mph75%29.83 "Hg10 mi
11:20 PM34 °FClear.15 mph81%29.86 "Hg10 mi
10:50 PM36 °FClear.17 mph75%29.86 "Hg10 mi
10:20 PM36 °FClear.18 mph75%29.86 "Hg10 mi
9:50 PM36 °FClear.17 mph75%29.86 "Hg10 mi
9:20 PM36 °FClear.17 mph75%29.86 "Hg10 mi
8:50 PM37 °FClear.18 mph70%29.86 "Hg10 mi
8:20 PM37 °FClear.18 mph75%29.86 "Hg10 mi
7:50 PM37 °FClear.16 mph75%29.86 "Hg10 mi
7:20 PM37 °FClear.16 mph75%29.89 "Hg10 mi
6:50 PM37 °FClear.15 mph75%29.89 "Hg10 mi
6:20 PM37 °FClear.15 mph75%29.89 "Hg10 mi
5:50 PM39 °FClear.15 mph70%29.89 "Hg10 mi
5:20 PM39 °FClear.12 mph70%29.89 "Hg10 mi
4:50 PM41 °FSunny.16 mph66%29.89 "Hg10 mi
4:20 PM41 °FSunny.17 mph66%29.89 "Hg10 mi
3:50 PM43 °FSunny.16 mph66%29.89 "Hg10 mi
3:20 PM43 °FSunny.16 mph66%29.89 "Hg10 mi
2:50 PM41 °FSunny.15 mph70%29.92 "Hg10 mi
2:20 PM43 °FSunny.14 mph66%29.92 "Hg10 mi
1:50 PM41 °FSunny.16 mph66%29.92 "Hg10 mi
1:20 PM41 °FSunny.16 mph70%29.92 "Hg10 mi
Weather by CustomWeather, © 2016

See weather overviewHow to use our weather pages